Погода в Большой Джалге

Россия / Ставропольский край     45°58′10″N   42°41′21″E
темп.,
°C
ветер,
м/с
пор.,
м/с
влажн.,
%
обл.,
%
осадки,
мм/ч
давл.,
гПа
погр.,
м
10 апреля, сб
сб1000:00+4сз5894100 1.2 1019536
03:00+4зсз5894100 1.2 1019478
06:00+4сз4793100 0.0 1019433
09:00+6сз5687100 0.0 1019622
12:00+8зсз5681100 0.0 1019770
15:00+9зсз4580100 0.1 1019887
18:00+8зсз3686100 0.1 1019381
21:00+7з3590100 0.1 1020182
11 апреля, вс
вс1100:00+7з3492100 0.0 1020123
03:00+7зюз3494100 0.0 1019141
06:00+7зсз2295100 0.0 101986
09:00+9ссз2288100 0.0 1019299
12:00+13всв227299 0.0 1019946
15:00+14в1367100 0.1 1018830
18:00+13зсз3477100 0.0 1018100
21:00+11сз3487100 0.0 101754
12 апреля, пн
пн1200:00+10зсз119099 0.0 101610
03:00+9зсз3494100 0.0 101681
06:00+9з3593100 0.0 1017147
09:00+13зсз6682100 0.0 1018609
12:00+13з5579100 0.0 1020627
15:00+14з5578100 0.1 1020725
18:00+12зюз4687100 0.1 1021258
21:00+10з3593100 0.1 1021118
13 апреля, вт
вт1300:00+9зсз239656 0.0 102143
03:00+10з2296100 0.0 102164
06:00+10з2496100 0.0 1021115
09:00+11зюз4590100 0.0 1021353
12:00+14зсз3377100 0.0 1021776
15:00+12з4480100 0.1 1021511
18:00+10з5787100 0.0 1022331
21:00+9з4792100 0.0 1022243
14 апреля, ср
ср1400:00+9зсз3593100 0.0 1021225
03:00+8сз3496100 0.0 101986
06:00+9зсз2396100 0.0 1019103
09:00+12зсз2279100 0.0 1019371
12:00+17св1247100 0.0 10171059
15:00+19юв1341100 0.0 10171737
18:00+13зюз6981100 0.0 1017341
21:00+11зюз5890100 0.1 1018211